Notices

What's New in latest Release from April 7th, 2021:

- Updated Glossary, including Speed of Maximum Gust, and Total Hourly Precipitation

- Updated national and regional climate services offices contacts and prices information

- Addition of station inventory lists for 1981-2010, 1971-2000, and 1961-1990 Normals.

If you haven't already, please take our survey and provide feedback about our website: https://eccc.sondage-survey.ca/f/LanguageSelection.aspx?s=442ca660-fcf1-47c0-95a9-59707d6fd709

Hourly Data Report for February 26, 2017

TORONTO INTL A
ONTARIO

43°40'36.000" N
79°37'50.000" W
173.40 m
6158731
71624
YYZ

Download Data

Hourly Data (February 2017)
Hourly Data Report for February 26, 2017
TIME
LST
Temp Definition
°C
Dew Point Definition
°C
Rel Hum Definition
%
Precip. Amount Definition
mm

Wind Dir Definition
10's deg

Wind Spd Definition
km/h
Visibility Definition
km
Stn Press Definition
kPa
Hmdx Definition


Wind Chill Definition


Weather Definition


00:00 -2.4 -8.3 64   27 31 24.1 98.89   -10 LegendNANA
01:00 -3.0 -8.1 68   29 28 24.1 98.96   -10 Mainly Clear
02:00 -3.2 -10.8 56   29 24 24.1 99.03   -10 LegendNANA
03:00 -3.6 -10.9 57   28 24 24.1 99.09   -10 LegendNANA
04:00 -4.0 -10.7 60   27 19 24.1 99.15   -10 Mainly Clear
05:00 -3.3 -10.4 58   26 16 24.1 99.22   -9 LegendNANA
06:00 -2.9 -9.6 60   24 16 24.1 99.31   -8 LegendNANA
07:00 -3.1 -8.0 69   26 19 24.1 99.39   -9 Cloudy
08:00 -2.8 -6.8 74   26 20 16.1 99.48   -9 Snow Showers
09:00 -2.2 -7.0 70   26 27 20.9 99.54   -9 Snow Showers
10:00 -1.5 -10.1 52   28 34 24.1 99.60   -9 Mostly Cloudy
11:00 -0.1 -9.6 49   26 26 24.1 99.62   -6 LegendNANA
12:00 -1.2 -8.2 59   26 27 24.1 99.68   -8 LegendNANA
13:00 -0.3 -8.8 53   24 22 24.1 99.63   -6 Mostly Cloudy
14:00 1.1 -8.0 51   26 26 24.1 99.60     LegendNANA
15:00 2.1 -9.2 43   21 26 24.1 99.56     LegendNANA
16:00 2.6 -8.8 43   22 21 24.1 99.50     Mainly Clear
17:00 1.2 -7.9 51   23 24 24.1 99.50     LegendNANA
18:00 0.5 -7.8 54   22 26 24.1 99.53     LegendNANA
19:00 0.3 -8.7 51   22 32 24.1 99.52     Cloudy
20:00 0.3 -8.0 54   21 22 24.1 99.55     LegendNANA
21:00 1.2 -6.9 55   22 22 24.1 99.56     LegendNANA
22:00 1.9 -6.5 54   21 27 24.1 99.56     Mostly Cloudy
23:00 2.4 -6.0 54   21 25 24.1 99.54     LegendNANA

Notes on Data Quality.

Legend

  • E = Estimated
  • M = Missing
  • NA = Not Available*
  • [empty] = Indicates an unobserved value
Date modified: